Location: Asheville, NC
(35.6000°N, 82.5500°W)
Time: 20:23:53
(UTC-04:00)

Vanguard 2 Rocket - Pass Details

Date: 16 March 2018
Orbit: 553 x 3328 km, 32.9° (Epoch: 24 June)

Event Time Altitude Azimuth Distance (km) Brightness Sun altitude
Rises 17:56:01 0° 249° (WSW) 2,818 11.1 19.7°
Reaches altitude 10° 17:58:21 10° 243° (WSW) 1,835 10.6 19.3°
Maximum altitude 18:02:08 48° 168° (SSE) 729 6.7 18.5°
Drops below altitude 10° 18:06:19 10° 93° (E) 2,024 8.2 17.7°
Sets 18:09:01 0° 88° (E) 3,151 9.1 17.2°
